Weather History for KHAI - May, 2012

Change the Weather History Date:

Friday, May 4, 2012

  Actual Average Record
Temperature  
Mean Temperature 72 °F -  
Max Temperature 80 °F 64 °F 89 °F (1949)
Min Temperature 63 °F 40 °F 27 °F (1971)
Cooling Degree Days 6    
Growing Degree Days 22 (Base 50)    
Moisture  
Dew Point 62 °F    
Average Humidity 76    
Maximum Humidity 88    
Minimum Humidity 53    
Precipitation  
Precipitation 0.00 in - - ()
Sea Level Pressure  
Sea Level Pressure 29.94 in    
Wind  
Wind Speed 5 mph (WSW)    
Max Wind Speed 15 mph    
Max Gust Speed 21 mph    
Visibility 10 miles    
Events Rain    
Averages and records for this station are not official NWS values.
T = Trace of Precipitation, MM = Missing Value Source: NWS Daily Summary

Daily Weather History Graph

Daily Weather History Graph

Search for Another Location

Airport or City:

Trip Planner

Search our weather history database for the weather conditions in past years. The results will help you decide how hot, cold, wet, or windy it might be!

Date:

Astronomy

May. 04, 2012 Rise Set
Actual Time 6:33 AM EDT 8:44 PM EDT
Civil Twilight 6:03 AM EDT 9:15 PM EDT
Nautical Twilight 5:25 AM EDT 9:53 PM EDT
Astronomical Twilight 4:43 AM EDT 10:35 PM EDT
Moon 7:21 PM EDT 5:15 AM EDT
Length of Visible Light 15h 12m
Length of Day
14h 11m
Waxing Gibbous, 97% of the Moon is Illuminated
May 4
Waxing Gibbous
May 5
Full
May 12
Last Quarter
May 20
New
May 28
First Quarter

Hourly Weather History & Observations

Time (EDT) Temp. Heat Index Dew Point Humidity Pressure Visibility Wind Dir Wind Speed Gust Speed Precip Events Conditions
12:14 AM 66.9 °F - 58.1 °F 73% 29.92 in 10.0 mi SSE 10.4 mph - N/A Rain Rain
12:35 AM 68.2 °F - 59.9 °F 75% 29.92 in 10.0 mi South 6.9 mph - N/A   Scattered Clouds
12:55 AM 68.0 °F - 60.3 °F 76% 29.93 in 10.0 mi SSW 4.6 mph - N/A   Clear
1:14 AM 65.3 °F - 60.1 °F 83% 29.93 in 10.0 mi Calm Calm - N/A   Clear
1:35 AM 64.2 °F - 59.7 °F 85% 29.94 in 10.0 mi Calm Calm - N/A   Clear
1:54 AM 64.2 °F - 60.6 °F 88% 29.93 in 10.0 mi Calm Calm - N/A   Clear
2:15 AM 64.9 °F - 61.3 °F 88% 29.92 in 10.0 mi Calm Calm - N/A   Clear
2:35 AM 65.3 °F - 59.7 °F 82% 29.92 in 10.0 mi SSW 3.5 mph - N/A   Clear
2:54 AM 65.7 °F - 59.4 °F 80% 29.93 in 10.0 mi SSW 5.8 mph - N/A   Clear
3:15 AM 67.6 °F - 58.5 °F 72% 29.94 in 10.0 mi SW 5.8 mph - N/A   Clear
3:35 AM 67.6 °F - 58.5 °F 72% 29.94 in 10.0 mi Calm Calm - N/A   Clear
3:54 AM 67.3 °F - 58.5 °F 73% 29.95 in 10.0 mi Calm Calm - N/A   Clear
4:15 AM 65.8 °F - 59.2 °F 79% 29.94 in 10.0 mi SSW 3.5 mph - N/A   Mostly Cloudy
4:35 AM 65.3 °F - 59.7 °F 82% 29.94 in 10.0 mi SSW 4.6 mph - N/A   Overcast
4:54 AM 65.3 °F - 59.2 °F 81% 29.94 in 10.0 mi Calm Calm - N/A   Scattered Clouds
5:15 AM 66.6 °F - 59.0 °F 77% 29.94 in 10.0 mi Calm Calm - N/A   Clear
5:34 AM 65.5 °F - 59.2 °F 80% 29.94 in 10.0 mi Calm Calm - N/A   Mostly Cloudy
5:55 AM 65.3 °F - 59.0 °F 80% 29.93 in 10.0 mi Calm Calm - N/A   Scattered Clouds
6:15 AM 66.4 °F - 59.0 °F 77% 29.93 in 10.0 mi Calm Calm - N/A   Clear
6:34 AM 63.3 °F - 59.5 °F 87% 29.92 in 10.0 mi NE 3.5 mph - N/A   Scattered Clouds
6:55 AM 64.4 °F - 59.9 °F 85% 29.89 in 10.0 mi NE 5.8 mph - N/A Rain Light Rain
7:15 AM 64.9 °F - 59.9 °F 84% 29.87 in 10.0 mi ENE 4.6 mph - N/A   Mostly Cloudy
7:34 AM 65.7 °F - 60.8 °F 84% 29.92 in 10.0 mi South 15.0 mph 20.7 mph N/A Rain Light Rain
8:14 AM 65.7 °F - 60.8 °F 84% 29.92 in 10.0 mi SSE 4.6 mph - N/A Rain Light Rain
8:34 AM 65.7 °F - 61.3 °F 86% 29.95 in 10.0 mi SW 5.8 mph - N/A   Overcast
8:55 AM 65.7 °F - 61.9 °F 88% 29.96 in 10.0 mi West 4.6 mph - N/A   Light Drizzle
9:14 AM 66.4 °F - 62.2 °F 86% 29.94 in 10.0 mi Calm Calm - N/A Rain Light Rain
9:35 AM 66.7 °F - 63.0 °F 88% 29.95 in 10.0 mi Calm Calm - N/A   Mostly Cloudy
9:55 AM 67.6 °F - 63.0 °F 85% 29.96 in 10.0 mi SW 3.5 mph - N/A   Mostly Cloudy
10:14 AM 67.8 °F - 63.0 °F 84% 29.96 in 10.0 mi SSW 3.5 mph - N/A   Mostly Cloudy
10:35 AM 68.4 °F - 63.1 °F 83% 29.97 in 10.0 mi SW 6.9 mph - N/A   Scattered Clouds
10:54 AM 68.5 °F - 63.5 °F 84% 29.96 in 10.0 mi SW 9.2 mph - N/A   Mostly Cloudy
11:15 AM 68.9 °F - 63.7 °F 83% 29.96 in 10.0 mi South 9.2 mph - N/A   Overcast
11:35 AM 70.7 °F - 64.9 °F 82% 29.95 in 10.0 mi South 9.2 mph - N/A   Mostly Cloudy
11:54 AM 72.7 °F - 65.3 °F 78% 29.96 in 7.0 mi South 8.1 mph - N/A   Clear
12:15 PM 72.0 °F - 65.1 °F 79% 29.95 in 10.0 mi SSE 8.1 mph - N/A   Mostly Cloudy
12:35 PM 73.4 °F - 64.8 °F 74% 29.96 in 10.0 mi SSW 3.5 mph - N/A   Mostly Cloudy
12:54 PM 74.3 °F - 65.3 °F 73% 29.96 in 10.0 mi SSW 6.9 mph - N/A   Overcast
1:15 PM 75.4 °F - 65.3 °F 71% 29.95 in 10.0 mi South 5.8 mph - N/A   Mostly Cloudy
1:35 PM 76.1 °F - 64.4 °F 67% 29.95 in 10.0 mi Calm Calm - N/A   Scattered Clouds
1:54 PM 77.5 °F - 64.0 °F 63% 29.94 in 10.0 mi SSW 4.6 mph - N/A   Scattered Clouds
2:15 PM 77.2 °F - 64.4 °F 65% 29.94 in 10.0 mi Calm Calm - N/A   Mostly Cloudy
2:35 PM 77.2 °F - 63.0 °F 61% 29.93 in 10.0 mi WSW 3.5 mph - N/A   Overcast
2:55 PM 78.1 °F - 64.6 °F 63% 29.93 in 10.0 mi WSW 4.6 mph - N/A   Overcast
3:15 PM 79.5 °F - 64.4 °F 60% 29.93 in 10.0 mi WNW 6.9 mph - N/A   Mostly Cloudy
3:34 PM 79.2 °F - 62.6 °F 57% 29.92 in 10.0 mi NNW 3.5 mph - N/A   Scattered Clouds
3:55 PM 79.7 °F - 61.7 °F 54% 29.91 in 10.0 mi West 3.5 mph - N/A   Clear
4:15 PM 80.6 °F 81.9 °F 63.1 °F 55% 29.91 in 10.0 mi West 5.8 mph - N/A   Clear
4:34 PM 80.1 °F 81.4 °F 62.4 °F 55% 29.90 in 10.0 mi WSW 3.5 mph - N/A   Scattered Clouds
4:55 PM 80.2 °F 81.3 °F 61.7 °F 53% 29.90 in 10.0 mi NW 3.5 mph - N/A   Scattered Clouds
5:15 PM 78.4 °F - 61.7 °F 56% 29.89 in 10.0 mi NNW 5.8 mph - N/A   Scattered Clouds
5:34 PM 78.1 °F - 63.5 °F 61% 29.90 in 10.0 mi NNW 5.8 mph - N/A   Scattered Clouds
5:55 PM 77.9 °F - 64.2 °F 63% 29.90 in 10.0 mi NW 8.1 mph - N/A   Clear
6:14 PM 77.9 °F - 63.9 °F 62% 29.90 in 10.0 mi WNW 6.9 mph - N/A   Clear
6:34 PM 77.0 °F - 63.9 °F 64% 29.91 in 10.0 mi WNW 10.4 mph - N/A   Scattered Clouds
6:55 PM 75.6 °F - 62.8 °F 64% 29.91 in 10.0 mi NW 9.2 mph - N/A   Clear
7:15 PM 74.8 °F - 62.6 °F 66% 29.90 in 10.0 mi NW 5.8 mph - N/A   Clear
7:35 PM 74.7 °F - 62.2 °F 65% 29.91 in 10.0 mi NW 4.6 mph - N/A   Clear
8:14 PM 73.8 °F - 62.6 °F 68% 29.93 in 10.0 mi NE 6.9 mph - N/A   Mostly Cloudy
8:35 PM 72.5 °F - 63.1 °F 72% 29.93 in 10.0 mi NE 6.9 mph - N/A   Mostly Cloudy
8:55 PM 70.9 °F - 63.9 °F 78% 29.94 in 10.0 mi NNE 6.9 mph - N/A   Scattered Clouds
9:14 PM 68.7 °F - 63.5 °F 83% 29.95 in 7.0 mi North 9.2 mph - N/A   Mostly Cloudy
9:35 PM 67.1 °F - 62.2 °F 84% 29.96 in 7.0 mi NE 11.5 mph - N/A   Overcast
9:55 PM 65.8 °F - 61.7 °F 86% 29.96 in 7.0 mi NNE 8.1 mph 16.1 mph N/A   Mostly Cloudy
10:14 PM 65.5 °F - 61.2 °F 86% 29.97 in 7.0 mi NNE 6.9 mph - N/A   Overcast
10:35 PM 64.8 °F - 60.8 °F 87% 29.98 in 7.0 mi NE 6.9 mph - N/A   Overcast
10:55 PM 64.4 °F - 60.4 °F 87% 29.99 in 7.0 mi NNE 8.1 mph - N/A   Overcast
11:15 PM 63.9 °F - 59.9 °F 87% 29.99 in 7.0 mi NE 8.1 mph - N/A   Overcast
11:35 PM 63.5 °F - 59.5 °F 87% 29.99 in 5.0 mi NE 6.9 mph - N/A   Overcast
11:55 PM 63.1 °F - 59.4 °F 87% 29.99 in 5.0 mi NE 6.9 mph - N/A   Overcast